Cloud_Cover
17 15 29 5 40 8 51 5 23 5 0 0 0 0 0 0 0 0 0 0 0 0 0 0 0 0 0 0 0 0 78 100 38 100 93 28 0 0 0 0 0 0 0 0 0
5 5 45 44 5 5 92 5 4 0 0 3 0 0 0 4 0 0 0 0 0 0 0 0 0 0 1 0 0 0 100 4 0 2 22 42 17 0 0 3 34 15 20 26 20
5 7 5 5 2 5 5 5 2 0 5 1 0 0 0 5 0 0 0 0 0 0 0 0 0 0 5 4 3 0 21 0 0 0 3 5 4 3 0 72 100 100 100 100 100
5 5 5 24 43 5 5 18 3 0 0 0 0 0 0 0 0 0 0 0 0 0 0 0 0 71 8 9 3 2 0 0 0 3 7 4 0 68 28 100 100 100 100 100 86
50 92 42 12 4 5 55 26 4 6 2 0 0 0 1 5 0 0 0 0 0 0 0 0 0 0 4 2 14 31 4 0 0 50 29 0 24 91 100 100 100 100 100 99 100
5 47 29 5 3 5 7 26 8 100 9 0 0 35 0 0 0 0 0 0 0 0 0 0 0 0 0 2 5 2 5 4 5 2 2 0 22 34 100 100 100 100 100 100 100
45 31 8 5 4 5 93 5 5 0 4 0 0 3 4 0 0 0 0 0 0 0 0 0 0 0 0 0 0 0 0 0 0 0 0 0 0 89 100 100 100 100 100 100 100
57 15 2 5 99 95 43 5 12 4 0 0 5 5 5 0 0 0 0 0 0 0 0 0 0 0 0 0 0 15 69 100 95 0 0 0 59 59 78 96 89 100 100 100 100
11 0 2 5 38 5 5 68 34 1 0 68 14 3 5 0 0 0 0 0 0 0 0 0 0 0 0 25 99 94 100 98 14 0 0 0 0 13 99 100 100 100 100 100 100
4 3 29 19 8 67 22 11 2 57 95 36 5 5 5 0 0 0 0 0 0 0 0 0 0 0 0 87 67 69 100 90 16 2 0 0 0 0 31 100 100 100 100 100 95
3 5 6 8 0 0 3 5 14 64 84 5 5 5 2 0 0 0 0 0 0 0 0 0 83 96 100 42 44 25 1 4 0 0 0 0 0 0 6 99 100 100 94 100 100
5 5 93 11 3 8 16 37 80 80 7 13 5 1 0 0 0 0 0 0 0 2 0 46 96 55 2 0 5 76 86 100 65 0 0 2 0 0 0 29 6 100 94 66 100
5 33 100 5 5 40 74 91 52 7 5 8 8 5 0 0 0 0 0 0 4 3 52 100 39 0 0 59 16 99 86 5 2 0 0 81 5 3 33 90 75 95 87 100 100
13 100 67 5 83 43 9 11 57 52 5 5 5 5 0 0 0 0 0 0 97 71 5 4 0 0 5 96 2 87 62 4 5 5 31 5 53 94 78 100 100 82 68 100 99
19 99 5 89 96 42 29 48 5 5 5 5 5 2 0 0 0 0 0 0 53 6 6 100 43 56 97 1 4 29 0 0 3 13 100 100 66 100 95 98 99 99 100 72 100
5 5 5 30 21 48 5 5 5 5 6 2 0 0 0 0 5 0 4 5 5 5 9 62 5 3 6 5 5 5 6 96 97 84 7 16 85 54 42 29 26 100 97 100 100
5 5 55 18 21 14 5 5 5 98 3 0 0 0 3 3 5 5 5 39 100 97 100 98 74 26 5 5 96 74 68 30 100 46 95 93 97 97 90 58 100 100 100 99 88
5 34 5 5 5 5 2 3 81 9 4 0 3 2 5 5 6 18 5 95 100 62 97 100 52 60 5 5 4 3 92 100 42 0 4 72 86 80 16 55 76 51 99 79 99
33 5 5 5 5 5 5 20 77 5 0 5 5 15 70 80 69 13 22 65 87 73 7 96 92 85 0 0 5 5 1 3 5 50 100 86 73 100 62 57 14 59 76 5 60
6 15 3 1 0 0 2 62 1 0 0 5 84 46 100 99 70 100 100 100 99 41 5 52 11 78 5 18 67 15 35 77 19 89 23 100 52 100 100 100 86 100 84 84 100
0 0 0 0 0 0 24 4 0 0 0 4 6 7 77 100 100 100 100 81 6 5 5 5 5 58 21 42 46 98 77 5 21 58 47 88 50 95 99 100 74 96 99 100 100
0 0 0 0 0 0 4 0 0 0 0 5 18 45 56 6 6 35 13 5 5 5 5 5 5 5 13 76 95 5 5 5 40 54 93 68 79 21 75 90 100 100 97 96 99
5 0 0 0 0 0 0 0 0 3 13 5 44 98 62 52 5 4 5 5 5 15 20 46 94 100 72 33 100 5 5 5 5 17 94 65 42 90 23 55 72 99 99 100 21
8 0 0 0 0 2 1 0 2 5 5 6 32 63 12 10 18 26 67 56 59 80 78 37 8 5 4 45 21 5 5 5 5 15 9 90 94 23 100 83 100 100 97 26 71
100 99 77 70 5 4 1 1 3 5 39 95 100 100 100 100 96 96 60 37 17 5 4 0 14 23 5 5 4 5 5 5 5 5 37 54 43 69 96 32 75 70 61 77 93
88 93 95 100 100 100 100 100 100 100 100 100 100 100 95 56 14 5 5 78 100 46 67 4 100 59 60 1 5 5 5 16 6 12 58 31 88 85 56 44 98 83 92 32 56
31 5 5 5 82 73 52 48 15 11 7 6 15 6 5 3 2 0 0 1 6 27 80 74 88 37 100 1 10 97 97 98 100 14 28 5 34 5 96 92 100 100 58 69 44